Home   Weather   Yverdon-les-Bains   Past weeks

Flag for Switzerland Past Weather in Yverdon-les-Bains, Vaud, Switzerland — Yesterday and Last 2 Weeks

Now
49 °F

Cool.


Feels Like: 49 °F
Forecast: 50 / 71 °F
Wind: 2 mph from South

Location: Payerne

Current Time: Sep 23, 2017 at 4:16:39 am

Latest Report: Sep 23, 2017 at 3:00 am


Visibility: N/A

Pressure: 30.23 "Hg

Humidity: 95%

Dew Point: 47 °F

Location of Yverdon-les-BainsLocation

Past Weather in Yverdon-les-Bains — Graph

°F

Yverdon-les-Bains Temperature Yesterday

Maximum temperature yesterday: 69 °F (at 4:00 pm)
Minimum temperature yesterday: 42 °F (at 6:00 am)
Average temperature yesterday: 54 °F

High & Low Weather Summary for the Past Weeks

 TemperatureHumidityPressure
High70 °F (Sep 8, 5:00 pm)97% (Sep 15, 6:00 am)30.24 "Hg (Sep 15, 6:00 am)
Low37 °F (Sep 21, 8:00 am)39% (Sep 15, 3:00 pm)29.59 "Hg (Sep 9, 6:00 am)
Average53 °F75%29.97 "Hg
* Reported Sep 8 2:00 am — Sep 23 2:00 am, Yverdon-les-Bains. Weather by CustomWeather, © 2017

Note: Actual official high and low records may vary slightly from our data, if they occured in-between our weather recording intervals... More about our weather records

Advertising

Yverdon-les-Bains Weather History for the Previous 24 Hours

Scroll right to see more
 ConditionsComfort  
Time TempWeatherWind HumidityBarometerVisibility
2:00 am
Sat, Sep 23
49 °FClear.1 mph95%30.23 "Hg10 mi
1:00 am50 °FCool.2 mph93%30.22 "HgN/A
12:00 am53 °FCool.2 mph90%30.22 "HgN/A
11:00 pm
Fri, Sep 22
53 °FPassing clouds.3 mph91%30.21 "Hg11 mi
10:00 pm55 °FCool.2 mph87%30.19 "HgN/A
9:00 pm57 °FCool.2 mph87%30.17 "HgN/A
8:00 pm61 °FPassing clouds.No wind75%30.14 "Hg19 mi
7:00 pm64 °FMild.1 mph72%30.11 "HgN/A
6:00 pm67 °FMild.3 mph59%30.10 "HgN/A
5:00 pm69 °FMild.2 mph53%30.09 "HgN/A
4:00 pm69 °FMild.2 mph53%30.09 "HgN/A
3:00 pm68 °FMild.2 mph55%30.10 "HgN/A
2:00 pm66 °FPartly sunny.3 mph61%30.12 "Hg19 mi
1:00 pm64 °FMild.2 mph59%30.13 "HgN/A
12:00 pm60 °FCool.2 mph64%30.16 "HgN/A
11:00 am56 °FPartly sunny.1 mph72%30.17 "Hg16 mi
10:00 am51 °FCool.1 mph79%30.20 "HgN/A
9:00 am47 °FCool.No wind90%30.20 "HgN/A
8:00 am43 °FPartly sunny.1 mph93%30.21 "Hg12 mi
7:00 am42 °FQuite cool.2 mph94%30.19 "HgN/A
6:00 am42 °FQuite cool.2 mph96%30.19 "HgN/A
5:00 am43 °FQuite cool.2 mph94%30.19 "HgN/A
4:00 am43 °FQuite cool.1 mph95%30.19 "HgN/A
Weather by CustomWeather, © 2017

See weather overviewHow to use our weather pages